Location: Hains Lake
(37.8540°N, 99.8578°W)
Time: 01:54:26
(UTC+00:00)

Vanguard 1 - Visible Passes

Search period start: 27 November 2022 00:00
Search period end: 07 December 2022 00:00
Orbit: 649 x 3831 km, 34.2° (Epoch: 26 November)

Date Brightness Start Highest point End Pass type
(mag) Time Alt. Az. Time Alt. Az. Time Alt. Az.
27 Nov 13.0 08:37:54 13° ESE 08:37:54 13° ESE 08:38:51 10° ESE visible
27 Nov 11.2 10:50:35 44° SSW 10:51:20 45° SSW 11:03:08 10° SE visible
28 Nov 12.7 08:57:34 17° ESE 08:57:34 17° ESE 08:59:47 10° ESE visible
28 Nov 11.5 11:10:16 34° SW 11:12:06 37° SSW 11:23:28 10° SE visible
29 Nov 12.5 09:17:15 21° ESE 09:17:15 21° ESE 09:20:38 10° ESE visible
29 Nov 11.8 11:29:58 24° SW 11:32:54 29° SSW 11:43:25 10° SSE visible
30 Nov 12.3 09:36:57 25° SE 09:36:57 25° SE 09:41:19 10° SE visible
30 Nov 12.2 11:49:39 16° WSW 11:53:46 22° SSW 12:02:49 10° SSE visible
01 Dec 12.1 09:56:40 26° SSE 09:56:40 26° SSE 10:01:46 10° SE visible
01 Dec 12.5 12:09:38 10° WSW 12:14:39 16° SSW 12:21:18 10° S visible
02 Dec 12.1 10:16:23 24° S 10:16:23 24° S 10:21:54 10° SE visible
02 Dec 12.8 12:34:44 10° SSW 12:35:36 10° SSW 12:36:30 10° SSW visible
03 Dec 12.2 10:36:05 21° S 10:36:05 21° S 10:41:34 10° SSE visible
04 Dec 12.1 01:32:56 10° S 01:34:57 11° SSE 01:35:09 11° SSE visible
04 Dec 12.4 10:55:49 15° SSW 10:55:49 15° SSW 11:00:29 10° S visible
05 Dec 11.9 01:51:08 10° SSW 01:54:51 17° SSE 01:54:51 17° SSE visible
06 Dec 11.7 02:10:37 10° SSW 02:14:33 21° S 02:14:33 21° S visible
